Weather in Igmas

Russia / Vologda Oblast     60°10′10″N   43°46′33″E
temp.,
°C
wind,
m/s
gust,
m/s
humid.,
%
clouds,
%
prec.,
mm/h
press.,
hPa
HPBL,
m
14 may, fri
fri1400:00+17sse257499 0.0 1016115
03:00+14s399199 0.3 1016345
06:00+15sw379272 0.4 1017552
09:00+18sw476614 0.4 10171047
12:00+21sw58425 0.0 10171883
15:00+21sw5736100 0.0 10171985
18:00+19wsw3649100 0.0 1016526
21:00+13sw22715 0.0 101712
15 may, sat
sat1500:00+11sw1176100 0.0 101710
03:00+12sse2373100 0.1 101660
06:00+12se2692100 1.3 1016189
09:00+14ese248799 2.8 1015222
12:00+22sse256098 0.3 10131331
15:00+18sse1287100 3.4 1012124
18:00+20se1380100 0.2 1011216
21:00+15ese3894100 6.3 1010279
16 may, sun
sun1600:00+15s51392100 0.3 1009665
03:00+13s4129794 0.5 1009469
06:00+15ssw4119417 0.0 1009547
09:00+19ssw59710 0.0 10091029
12:00+22ssw610490 0.0 10091926
15:00+23ssw5104894 0.0 10082583
18:00+18sw511735 1.1 10081210
21:00+14sw4129290 2.1 1009506
17 may, mon
mon1700:00+13sw4129615 0.3 1010499
03:00+12sw3109853 0.3 1012363
06:00+13sw389444 0.0 1013360
09:00+18wsw477446 0.0 10141002
12:00+20wsw4755100 0.1 10141824
15:00+19wsw356756 0.2 1015741
18:00+21wnw136191 0.1 10151232
21:00+16ne008189 0.1 101611
18 may, tue
tue1800:00+13ese2291100 0.0 101719
03:00+12e239673 0.0 101755
06:00+15e3786100 0.0 1016218
09:00+20ese466398 0.0 1016680
12:00+24se4650100 0.0 10151361
15:00+25sse4648100 0.0 10141638
18:00+24se385833 0.0 1013397
21:00+18ese311829 0.0 1013193